TimeCEST,TemperatureF,Dew PointF,Humidity,Sea Level PressureIn,VisibilityMPH,Wind Direction,Wind SpeedMPH,Gust SpeedMPH,PrecipitationIn,Events,Conditions,WindDirDegrees,DateUTC
12:45 AM,59.0,42.8,55,30.12,-9999.0,West,2.3,-,N/A,,Clear,270,2013-06-30 22:45:00
1:45 AM,55.4,41.0,58,30.12,-9999.0,NE,4.6,-,N/A,,Clear,50,2013-06-30 23:45:00
2:00 AM,54,42,53,30.13,47,NE,4.5,,,,Partly Cloudy,50,2013-07-01 00:00:00
2:45 AM,53.6,42.8,67,30.12,-9999.0,North,6.9,-,N/A,,Clear,360,2013-07-01 00:45:00
3:45 AM,53.6,42.8,67,30.12,-9999.0,NNW,4.6,-,N/A,,Clear,330,2013-07-01 01:45:00
4:45 AM,51.8,42.8,71,30.12,-9999.0,NNW,5.8,-,N/A,,Clear,330,2013-07-01 02:45:00
5:45 AM,53.6,44.6,72,30.15,-9999.0,NW,2.3,-,N/A,,Clear,310,2013-07-01 03:45:00
6:15 AM,53.6,44.6,72,30.15,-9999.0,West,3.5,-,N/A,,Clear,260,2013-07-01 04:15:00
6:45 AM,55.4,46.4,72,30.15,-9999.0,WSW,2.3,-,N/A,,Clear,240,2013-07-01 04:45:00
7:00 AM,-9999,-9999,N/A,-9999,-9999.0,Variable,2.3,-,N/A,,Clear,0,2013-07-01 05:00:00
7:15 AM,57.2,46.4,67,30.15,-9999.0,WNW,4.6,-,N/A,,Clear,300,2013-07-01 05:15:00
7:45 AM,59.0,44.6,59,30.18,-9999.0,WNW,5.8,-,N/A,,Clear,300,2013-07-01 05:45:00
8:00 AM,59,45,48,30.17,47,WNW,4.5,,,,Partly Cloudy,300,2013-07-01 06:00:00
8:15 AM,60.8,42.8,52,30.18,-9999.0,WNW,5.8,-,N/A,,Clear,290,2013-07-01 06:15:00
8:45 AM,62.6,44.6,52,30.18,-9999.0,NW,4.6,-,N/A,,Clear,320,2013-07-01 06:45:00
9:15 AM,62.6,44.6,52,30.18,-9999.0,NNW,5.8,-,N/A,,Clear,340,2013-07-01 07:15:00
9:45 AM,64.4,44.6,49,30.18,6.2,NW,10.4,-,N/A,,Partly Cloudy,320,2013-07-01 07:45:00
10:00 AM,-9999,-9999,N/A,-9999,-9999.0,NNW,9.2,-,N/A,,Clear,330,2013-07-01 08:00:00
10:15 AM,64.4,42.8,45,30.18,6.2,NNW,10.4,-,N/A,,Partly Cloudy,330,2013-07-01 08:15:00
10:45 AM,66.2,44.6,46,30.18,6.2,NNW,11.5,-,N/A,,Partly Cloudy,330,2013-07-01 08:45:00
11:15 AM,66.2,42.8,43,30.18,-9999.0,NNW,12.7,-,N/A,,Clear,330,2013-07-01 09:15:00
11:45 AM,68.0,44.6,43,30.18,-9999.0,NNW,9.2,20.7,N/A,,Clear,340,2013-07-01 09:45:00
12:15 PM,68.0,44.6,43,30.15,-9999.0,WNW,10.4,-,N/A,,Clear,290,2013-07-01 10:15:00
12:45 PM,69.8,44.6,40,30.15,-9999.0,WNW,10.4,-,N/A,,Clear,300,2013-07-01 10:45:00
1:00 PM,-9999,-9999,N/A,-9999,-9999.0,NNW,9.2,-,N/A,,Clear,330,2013-07-01 11:00:00
1:15 PM,71.6,44.6,38,30.15,-9999.0,NNW,9.2,-,N/A,,Clear,340,2013-07-01 11:15:00
1:45 PM,71.6,46.4,41,30.15,-9999.0,NNW,8.1,-,N/A,,Clear,330,2013-07-01 11:45:00
2:00 PM,71,47,31,30.13,47,NNW,8.9,,,,Partly Cloudy,330,2013-07-01 12:00:00
2:15 PM,69.8,44.6,40,30.15,-9999.0,NW,8.1,-,N/A,,Clear,320,2013-07-01 12:15:00
2:45 PM,69.8,44.6,40,30.15,-9999.0,NNW,6.9,-,N/A,,Clear,340,2013-07-01 12:45:00
3:15 PM,71.6,44.6,38,30.12,-9999.0,West,6.9,-,N/A,,Clear,260,2013-07-01 13:15:00
3:45 PM,73.4,44.6,36,30.12,-9999.0,NNE,3.5,-,N/A,,Clear,30,2013-07-01 13:45:00
4:00 PM,-9999,-9999,N/A,-9999,-9999.0,Variable,2.3,-,N/A,,Dust Whirls,0,2013-07-01 14:00:00
4:15 PM,73.4,44.6,36,30.12,-9999.0,NW,9.2,-,N/A,,Clear,310,2013-07-01 14:15:00
4:45 PM,73.4,44.6,36,30.12,-9999.0,WNW,6.9,-,N/A,,Clear,300,2013-07-01 14:45:00
5:15 PM,71.6,46.4,41,30.12,-9999.0,West,5.8,-,N/A,,Clear,280,2013-07-01 15:15:00
5:45 PM,71.6,44.6,38,30.12,-9999.0,NW,3.5,-,N/A,,Clear,320,2013-07-01 15:45:00
6:15 PM,73.4,44.6,36,30.12,-9999.0,NW,8.1,-,N/A,,Clear,320,2013-07-01 16:15:00
6:45 PM,71.6,46.4,41,30.12,-9999.0,NW,4.6,-,N/A,,Clear,310,2013-07-01 16:45:00
7:15 PM,69.8,48.2,46,30.12,-9999.0,WNW,3.5,-,N/A,,Clear,300,2013-07-01 17:15:00
7:45 PM,71.6,48.2,43,30.12,-9999.0,WNW,2.3,-,N/A,,Clear,300,2013-07-01 17:45:00
8:00 PM,71,48,32,30.10,47,WNW,2.2,,,,Partly Cloudy,300,2013-07-01 18:00:00
8:15 PM,69.8,48.2,46,30.12,-9999.0,NW,2.3,-,N/A,,Clear,310,2013-07-01 18:15:00
8:45 PM,68.0,48.2,49,30.12,-9999.0,North,3.5,-,N/A,,Clear,350,2013-07-01 18:45:00
9:15 PM,64.4,51.8,64,30.12,-9999.0,Calm,Calm,-,N/A,,Clear,0,2013-07-01 19:15:00
9:45 PM,64.4,50.0,59,30.15,-9999.0,Calm,Calm,-,N/A,,Clear,0,2013-07-01 19:45:00
10:45 PM,62.6,50.0,63,30.12,-9999.0,SSE,1.2,-,N/A,,Clear,160,2013-07-01 20:45:00
11:45 PM,60.8,50.0,68,30.12,-9999.0,ESE,1.2,-,N/A,,Clear,110,2013-07-01 21:45:00